1504458000.3,63049,18.94,73164.8,0.43,-0.45,-0.45,0,*42
1504458001.5,63050,18.94,73170.3,0.41,-0.41,-0.33,0,*4D
1504458002.67,63051,18.94,73164.8,0.43,-0.45,-0.53,0,*4C
1504458003.92,63052,18.94,73164.8,0.41,-1.01,-1.05,0,*4E
1504458005.18,63053,18.94,73162.5,0.41,-1.05,-1.05,0,*4B
1504458006.41,63054,18.94,73158.5,0.41,-0.93,-0.93,0,*4C
1504458007.6,63055,18.94,73158.0,0.41,-0.77,-0.69,0,*42
1504458008.8,63056,18.94,73158.0,0.37,-0.53,-0.49,0,*44
1504458009.98,63057,18.94,73158.0,0.39,-0.45,-0.37,0,*45
1504458011.15,63058,18.94,73156.3,0.39,-0.37,-0.45,0,*4A
1504458012.36,63059,18.94,73160.3,0.37,-0.41,-0.41,0,*40
1504458013.56,63060,18.94,73166.3,0.37,-0.41,-0.41,0,*4A
1504458014.73,63061,18.94,73160.8,0.39,-0.29,-0.29,0,*45
1504458015.9,63062,18.94,73162.5,0.39,-0.29,-0.29,0,*46
1504458017.07,63063,18.94,73162.3,0.39,-0.33,-0.33,0,*47
1504458018.24,63064,18.94,73160.5,0.39,-0.37,-0.37,0,*40
1504458019.42,63065,18.94,73160.5,0.39,-0.33,-0.33,0,*41
1504458020.59,63066,18.94,73170.5,0.39,-0.33,-0.33,0,*42
1504458021.75,63067,18.94,73164.5,0.39,-0.29,-0.29,0,*43
1504458022.92,63068,18.94,73170.3,0.39,-0.29,-0.33,0,*47
1504458024.09,63069,18.94,73170.0,0.39,-0.29,-0.29,0,*4D
1504458025.26,63070,18.94,73170.5,0.39,-0.33,-0.37,0,*41
1504458026.44,63071,18.94,73164.5,0.39,-0.37,-0.37,0,*44
1504458027.62,63072,18.94,73164.3,0.39,-0.37,-0.37,0,*47
1504458028.79,63073,18.94,73164.8,0.39,-0.33,-0.37,0,*42
1504458029.99,63074,18.94,73166.5,0.37,-0.33,-0.37,0,*4B
1504458031.16,63075,18.94,73170.8,0.39,-0.33,-0.33,0,*40
1504458032.36,63076,18.94,73168.5,0.37,-0.37,-0.33,0,*49
1504458033.52,63077,18.94,73168.5,0.39,-0.29,-0.29,0,*42
1504458034.69,63078,18.94,73168.0,0.39,-0.29,-0.29,0,*4D
1504458035.89,63079,18.94,73168.3,0.37,-0.37,-0.37,0,*42
1504458037.06,63080,18.94,73168.3,0.39,-0.69,-0.61,0,*42
1504458038.31,63081,18.94,73164.5,0.37,-1.13,-1.09,0,*4E
1504458039.52,63082,18.94,73166.0,0.37,-1.21,-1.21,0,*46
1504458040.77,63083,18.94,73164.3,0.37,-1.13,-1.13,0,*47
1504458042.02,63084,18.94,73166.5,0.37,-0.97,-1.09,0,*76
1504458043.25,63085,18.94,73168.5,0.35,-1.09,-1.13,0,*48
1504458044.43,63086,18.94,73168.8,0.35,-1.25,-1.29,0,*4C
1504458045.66,63087,18.94,73166.0,0.33,-1.39,-1.33,0,*4D
1504458046.87,63088,18.94,73164.3,0.33,-1.29,-1.25,0,*44
1504458048.08,63089,18.94,73164.5,0.33,-1.17,-1.17,0,*49
1504458049.26,63090,18.94,73164.3,0.31,-1.33,-1.25,0,*44
1504458050.47,63091,18.94,73170.3,0.29,-1.21,-1.21,0,*4B
1504458051.68,63092,18.94,73164.3,0.29,-1.29,-1.29,0,*48
1504458052.9,63093,18.94,73164.8,0.29,-1.29,-1.21,0,*41
1504458054.16,63094,18.94,73164.5,0.29,-1.35,-1.35,0,*4E
1504458055.39,63095,18.94,73170.5,0.27,-1.35,-1.35,0,*41
1504458056.58,63096,18.94,73166.0,0.27,-1.29,-1.29,0,*42
1504458057.79,63097,18.94,73168.8,0.23,-1.13,-1.25,0,*42
1504458059.0,63098,18.94,73168.0,0.23,-1.21,-1.13,0,*49
1504458060.23,63099,18.94,73164.3,0.23,-1.13,-1.13,0,*49
1504458061.42,63100,18.94,73170.8,0.23,-1.21,-1.21,0,*48
1504458062.65,63101,18.94,73168.5,0.23,-1.13,-1.13,0,*49
1504458063.88,63102,18.94,73168.0,0.23,-1.13,-1.09,0,*41
1504458065.09,63103,18.94,73170.3,0.23,-1.21,-1.13,0,*4A
1504458066.3,63104,18.94,73168.3,0.21,-1.25,-1.25,0,*4E
1504458067.51,63105,18.94,73170.8,0.21,-1.17,-1.17,0,*4F
1504458068.72,63106,18.94,73170.0,0.21,-1.17,-1.25,0,*4D
1504458069.91,63107,18.94,73170.0,0.19,-1.17,-1.17,0,*46
1504458071.14,63108,18.94,73166.0,0.19,-1.13,-1.13,0,*49
1504458072.38,63109,18.94,73166.0,0.19,-1.05,-1.13,0,*4F
1504458073.56,63110,18.94,73162.0,0.19,-0.81,-0.81,0,*40
1504458074.73,63111,18.94,73166.3,0.19,-0.69,-0.69,0,*41
1504458075.91,63112,18.94,73164.8,0.19,-0.65,-0.65,0,*42
1504458077.08,63113,18.94,73166.0,0.19,-0.69,-0.77,0,*4C
1504458078.31,63114,18.94,73164.8,0.19,-0.89,-0.89,0,*44
1504458079.55,63115,18.94,73166.0,0.21,-0.93,-0.89,0,*45
1504458080.77,63116,18.94,73164.0,0.21,-0.89,-0.81,0,*45
1504458081.98,63117,18.94,73164.8,0.21,-0.81,-0.81,0,*4C
1504458083.15,63118,18.94,73164.5,0.19,-0.57,-0.65,0,*49
1504458084.35,63119,18.94,73166.8,0.21,-0.57,-0.57,0,*42
1504458085.55,63120,18.94,73168.8,0.21,-0.57,-0.53,0,*4C
1504458086.75,63121,18.94,73174.3,0.21,-0.57,-0.53,0,*4D
1504458087.95,63122,18.94,73170.0,0.21,-0.57,-0.57,0,*4A
1504458089.17,63123,18.94,73168.3,0.21,-0.77,-0.89,0,*4A
1504458090.35,63124,18.94,73170.8,0.19,-0.69,-0.69,0,*47
1504458091.55,63125,18.94,73170.0,0.21,-0.77,-0.77,0,*4D
1504458092.75,63126,18.94,73170.3,0.21,-0.77,-0.77,0,*4E
1504458093.93,63127,18.94,73168.5,0.19,-0.77,-0.77,0,*44
1504458095.11,63128,18.94,73166.0,0.19,-0.69,-0.77,0,*44
1504458096.31,63129,18.94,73170.0,0.21,-0.77,-0.77,0,*41
1504458097.51,63130,18.94,73168.5,0.21,-0.69,-0.65,0,*45
1504458098.71,63131,18.94,73166.0,0.21,-0.57,-0.57,0,*48
1504458099.91,63132,18.94,73166.8,0.21,-0.53,-0.53,0,*4B
1504458101.08,63133,18.94,73164.8,0.19,-0.53,-0.53,0,*41
1504458102.28,63134,18.94,73166.8,0.21,-0.53,-0.53,0,*4D
1504458103.49,63135,18.94,73164.3,0.21,-0.41,-0.37,0,*4D
1504458104.69,63136,18.94,73170.0,0.21,-0.37,-0.37,0,*4F
1504458105.89,63137,18.94,73164.0,0.21,-0.37,-0.29,0,*41
1504458107.08,63138,18.94,73166.5,0.21,-0.37,-0.29,0,*4E
1504458108.31,63139,18.94,73166.8,0.21,-0.37,-0.27,0,*41
1504458109.51,63140,18.94,73166.5,0.21,-0.41,-0.37,0,*4F
1504458110.69,63141,18.94,73166.5,0.23,-0.49,-0.49,0,*4D
1504458111.87,63142,18.94,73166.0,0.23,-0.53,-0.49,0,*45
1504458113.04,63143,18.94,73164.3,0.23,-0.65,-0.65,0,*4F
1504458114.27,63144,18.94,73164.0,0.21,-0.89,-0.81,0,*42
1504458115.51,63145,18.94,73166.5,0.21,-0.93,-0.93,0,*4B
1504458116.75,63146,18.94,73168.3,0.21,-0.89,-0.89,0,*48
1504458117.95,63147,18.94,73166.5,0.21,-0.69,-0.69,0,*49
1504458119.15,63148,18.94,73164.8,0.21,-0.57,-0.57,0,*46
1504458120.35,63149,18.94,73164.8,0.21,-0.57,-0.53,0,*43
1504458121.55,63150,18.94,73164.0,0.21,-0.49,-0.49,0,*4F
1504458122.75,63151,18.94,73164.3,0.21,-0.49,-0.49,0,*4E
1504458123.95,63152,18.94,73162.0,0.21,-0.53,-0.53,0,*4D
1504458125.13,63153,18.94,73162.3,0.19,-0.53,-0.53,0,*47
1504458126.33,63154,18.94,73164.0,0.21,-0.53,-0.53,0,*4B
1504458127.53,63155,18.94,73164.5,0.21,-0.49,-0.41,0,*42
1504458128.73,63156,18.94,73166.3,0.21,-0.37,-0.37,0,*49
1504458129.93,63157,18.94,73162.0,0.21,-0.29,-0.37,0,*47
1504458131.12,63158,18.94,73166.8,0.21,-0.29,-0.29,0,*47
1504458132.34,63159,18.94,73162.5,0.21,-0.29,-0.27,0,*48
1504458133.59,63160,18.94,73164.0,0.21,-0.27,-0.27,0,*4C
1504458134.81,63161,18.94,73166.5,0.23,-0.27,-0.27,0,*4F
1504458135.99,63162,18.94,73164.0,0.27,-0.19,-0.19,0,*48
1504458137.22,63163,18.94,73162.5,0.23,-0.23,-0.23,0,*4D
1504458138.42,63164,18.94,73164.5,0.23,-0.23,-0.15,0,*4F
1504458139.62,63165,18.94,73166.0,0.27,-0.23,-0.15,0,*4A
1504458140.83,63166,18.94,73166.3,0.27,-0.27,-0.19,0,*41
1504458142.01,63167,18.94,73166.8,0.27,-0.11,-0.19,0,*45
1504458143.21,63168,18.94,73166.3,0.23,-0.15,-0.23,0,*43
1504458144.39,63169,18.94,73166.8,0.27,-0.19,-0.19,0,*43
1504458145.57,63170,18.94,73168.3,0.27,-0.19,-0.19,0,*4B
1504458146.77,63171,18.94,73168.3,0.27,-0.19,-0.23,0,*43
1504458147.96,63172,18.94,73170.5,0.27,-0.23,-0.29,0,*43
1504458149.16,63173,18.94,73166.8,0.27,-0.23,-0.19,0,*41
1504458150.34,63174,18.94,73168.0,0.27,-0.29,-0.19,0,*4C
1504458151.51,63175,18.94,73166.8,0.27,-0.33,-0.29,0,*45
1504458152.73,63176,18.94,73166.0,0.29,-0.29,-0.23,0,*49
1504458153.92,63177,18.94,73166.3,0.29,-0.29,-0.29,0,*42
1504458155.14,63178,18.94,73164.5,0.29,-0.23,-0.19,0,*44
1504458156.37,63179,18.94,73166.8,0.29,-0.19,-0.23,0,*45
1504458157.57,63180,18.94,73164.0,0.29,-0.19,-0.19,0,*4A
1504458158.78,63181,18.94,73164.8,0.29,-0.19,-0.19,0,*4B
1504458159.95,63182,18.94,73166.0,0.31,-0.19,-0.19,0,*41
1504458161.17,63183,18.94,73164.0,0.29,-0.29,-0.23,0,*43
1504458162.37,63184,18.94,73166.0,0.31,-0.15,-0.27,0,*46
1504458163.59,63185,18.94,73164.0,0.29,-0.23,-0.19,0,*46
1504458164.77,63186,18.94,73166.0,0.31,-0.15,-0.15,0,*45
1504458165.94,63187,18.94,73166.0,0.31,-0.07,-0.15,0,*77
1504458167.12,63188,18.94,73164.0,0.31,-0.15,-0.15,0,*4B
1504458168.28,63189,18.94,73164.8,0.31,-0.07,-0.07,0,*4A
1504458169.45,63190,18.94,73164.0,0.31,-0.15,-0.07,0,*71
1504458170.63,63191,18.94,73160.5,0.31,-0.15,-0.15,0,*43
1504458171.8,63192,18.94,73164.0,0.31,-0.07,-0.15,0,*73
1504458172.97,63193,18.94,73166.8,0.31,-0.15,-0.07,0,*72
1504458174.14,63194,18.94,73162.5,0.31,-0.15,-0.07,0,*75
1504458175.3,63195,18.94,73162.0,0.31,-0.07,-0.03,0,*43
1504458176.49,63196,18.94,73160.0,0.33,-0.07,-0.07,0,*46
1504458177.68,63197,18.94,73166.0,0.33,-0.15,-0.07,0,*74
1504458178.88,63198,18.94,73164.0,0.33,-0.07,-0.15,0,*7B
1504458180.07,63199,18.94,73162.0,0.33,-0.15,-0.15,0,*49
1504458181.27,63200,18.94,73168.5,0.33,-0.15,-0.07,0,*79
1504458182.45,63201,18.94,73164.3,0.33,-0.07,-0.07,0,*4B
1504458183.68,63202,18.94,73166.5,0.35,-0.23,-0.23,0,*4E
1504458184.89,63203,18.94,73162.8,0.33,-0.27,-0.29,0,*47
1504458186.11,63204,18.94,73160.8,0.33,-0.27,-0.29,0,*40
1504458187.32,63205,18.94,73164.3,0.33,-0.27,-0.29,0,*41
1504458188.55,63206,18.94,73160.3,0.35,-0.27,-0.23,0,*4E
1504458189.73,63207,18.94,73166.5,0.35,-0.15,-0.11,0,*4F
1504458190.93,63208,18.94,73164.8,0.33,-0.15,-0.15,0,*42
1504458192.1,63209,18.94,73168.3,0.35,-0.11,0.01,0,*59
1504458193.28,63210,18.94,73164.8,0.33,-0.07,-0.07,0,*4B
1504458194.48,63211,18.94,73164.5,0.33,-0.07,-0.15,0,*79
1504458195.66,63212,18.94,73166.3,0.35,-0.03,-0.11,0,*7C
1504458196.84,63213,18.94,73170.3,0.35,-0.11,-0.11,0,*4E
1504458198.06,63214,18.94,73164.3,0.35,-0.27,-0.27,0,*49
1504458199.3,63215,18.94,73164.3,0.33,-0.27,-0.27,0,*4E
1504458200.53,63216,18.94,73166.8,0.35,-0.23,-0.23,0,*4B
1504458201.7,63217,18.94,73166.3,0.35,-0.33,-0.33,0,*4A
1504458202.88,63218,18.94,73168.5,0.35,-0.37,-0.37,0,*45
1504458204.06,63219,18.94,73164.5,0.35,-0.37,-0.37,0,*44
1504458205.27,63220,18.94,73164.3,0.33,-0.41,-0.41,0,*48
1504458206.45,63221,18.94,73166.0,0.35,-0.41,-0.41,0,*4F
1504458207.65,63222,18.94,73164.3,0.33,-0.45,-0.45,0,*4A
1504458208.85,63223,18.94,73160.0,0.33,-0.45,-0.45,0,*4B
1504458210.04,63224,18.94,73160.0,0.33,-0.37,-0.37,0,*4C
1504458211.24,63225,18.94,73160.0,0.33,-0.37,-0.37,0,*4D
1504458212.44,63226,18.94,73160.5,0.35,-0.37,-0.27,0,*49
1504458213.66,63227,18.94,73160.5,0.33,-0.29,-0.27,0,*41
1504458214.88,63228,18.94,73162.3,0.33,-0.19,-0.27,0,*4D
1504458216.1,63229,18.94,73156.5,0.35,-0.23,-0.23,0,*47
1504458217.29,63230,18.94,73162.3,0.35,-0.19,-0.15,0,*43
1504458218.48,63231,18.94,73156.8,0.33,-0.15,-0.15,0,*48
1504458219.69,63232,18.94,73156.5,0.33,-0.15,-0.15,0,*4B
1504458220.88,63233,18.94,73162.3,0.33,-0.07,-0.15,0,*79
1504458222.05,63234,18.94,73162.3,0.35,-0.11,-0.03,0,*78
1504458223.25,63235,18.94,73162.8,0.35,-0.15,-0.23,0,*4F
1504458224.47,63236,18.94,73160.5,0.35,-0.23,-0.23,0,*49
1504458225.72,63237,18.94,73160.0,0.33,-0.27,-0.27,0,*4E
1504458226.94,63238,18.94,73162.5,0.35,-0.27,-0.23,0,*43
1504458228.12,63239,18.94,73160.8,0.35,-0.11,-0.11,0,*46
1504458229.32,63240,18.94,73156.8,0.33,-0.15,-0.15,0,*4E
1504458230.5,63241,18.94,73160.0,0.35,-0.03,-0.11,0,*7A
1504458231.67,63242,18.94,73162.3,0.35,-0.03,-0.03,0,*4A
1504458232.85,63243,18.94,73160.8,0.35,-0.11,-0.11,0,*4B
1504458234.03,63244,18.94,73162.3,0.35,-0.11,-0.03,0,*7F
1504458235.19,63245,18.94,73160.0,0.35,-0.03,0.01,0,*62
1504458236.34,63246,18.94,73160.8,0.35,0.01,0.01,0,*4E
1504458237.51,63247,18.94,73160.5,0.37,0.01,0.01,0,*4D
1504458238.7,63248,18.94,73164.0,0.37,-0.03,-0.03,0,*42
1504458239.88,63249,18.94,73162.5,0.37,-0.11,0.01,0,*5F
1504458241.06,63250,18.94,73166.5,0.37,0.01,0.05,0,*4F
1504458242.23,63251,18.94,73164.3,0.37,0.01,0.01,0,*4A
1504458243.42,63252,18.94,73166.0,0.37,-0.03,-0.03,0,*49
1504458244.62,63253,18.94,73162.5,0.37,-0.15,-0.15,0,*48
1504458245.82,63254,18.94,73160.0,0.37,-0.11,-0.11,0,*4F
1504458247.0,63255,18.94,73166.0,0.39,0.05,0.13,0,*77
1504458248.2,63256,18.94,73162.3,0.39,0.13,0.17,0,*47
1504458249.37,63257,18.94,73160.0,0.37,0.01,0.01,0,*4C
1504458250.52,63258,18.94,73156.5,0.39,0.01,0.05,0,*49
1504458251.67,63259,18.94,73158.3,0.39,0.01,0.05,0,*48
1504458252.83,63260,18.94,73162.3,0.39,0.05,0.05,0,*46
1504458254.03,63261,18.94,73158.0,0.39,0.13,0.13,0,*47
1504458255.19,63262,18.94,73160.8,0.39,-0.07,0.01,0,*6F
1504458256.39,63263,18.94,73158.8,0.37,-0.15,-0.11,0,*4F
1504458257.54,63264,18.94,73158.5,0.39,0.01,0.05,0,*46
1504458258.72,63265,18.94,73162.5,0.41,-0.03,0.05,0,*67
1504458259.91,63266,18.94,73160.0,0.41,-0.03,-0.07,0,*4B
1504458261.09,63267,18.94,73160.0,0.41,-0.03,-0.03,0,*4E
1504458262.28,63268,18.94,73158.3,0.41,-0.07,-0.07,0,*41
1504458263.45,63269,18.94,73158.3,0.39,-0.11,-0.07,0,*78
1504458264.65,63270,18.94,73156.5,0.39,-0.23,-0.11,0,*46
1504458265.85,63271,18.94,73158.0,0.39,-0.23,-0.19,0,*4F
1504458267.07,63272,18.94,73158.8,0.41,-0.19,-0.27,0,*47
1504458268.28,63273,18.94,73156.3,0.41,-0.19,-0.27,0,*46
1504458269.48,63274,18.94,73162.0,0.41,-0.15,-0.15,0,*4C
1504458270.7,63275,18.94,73166.0,0.39,-0.23,-0.23,0,*42
1504458271.92,63276,18.94,73166.8,0.37,-0.27,-0.33,0,*4A
1504458273.12,63277,18.94,73166.8,0.41,-0.19,-0.19,0,*4F
1504458274.3,63278,18.94,73168.0,0.39,-0.19,-0.19,0,*4F
1504458275.5,63279,18.94,73164.8,0.37,-0.11,-0.15,0,*44
1504458276.69,63280,18.94,73166.5,0.41,-0.03,-0.07,0,*43
1504458277.86,63281,18.94,73166.3,0.39,-0.19,-0.19,0,*49
1504458279.06,63282,18.94,73166.8,0.39,-0.23,-0.19,0,*43
1504458280.24,63283,18.94,73160.8,0.39,-0.11,-0.19,0,*43
1504458281.39,63284,18.94,73158.8,0.39,0.01,-0.07,0,*67
1504458282.58,63285,18.94,73156.3,0.41,-0.15,-0.07,0,*71
1504458283.78,63286,18.94,73162.3,0.41,-0.19,-0.19,0,*41
1504458284.95,63287,18.94,73160.8,0.43,-0.19,-0.19,0,*42
1504458286.13,63288,18.94,73160.5,0.39,-0.19,-0.19,0,*40
1504458287.3,63289,18.94,73160.0,0.39,-0.11,-0.07,0,*76
1504458288.49,63290,18.94,73160.3,0.41,-0.03,0.05,0,*6D
1504458289.67,63291,18.94,73162.5,0.41,-0.03,0.05,0,*6C
1504458290.84,63292,18.94,73162.8,0.41,0.05,0.05,0,*44
1504458292.02,63293,18.94,73162.3,0.41,0.05,0.05,0,*45
1504458293.2,63294,18.94,73162.0,0.41,0.05,0.09,0,*4E
1504458294.4,63295,18.94,73162.3,0.41,0.09,0.17,0,*7C
1504458295.58,63296,18.94,73162.0,0.41,0.05,0.09,0,*4C
1504458296.75,63297,18.94,73162.0,0.41,0.09,0.09,0,*41
1504458297.93,63298,18.94,73166.0,0.43,0.09,0.17,0,*73
1504458299.13,63299,18.94,73164.3,0.41,0.09,0.17,0,*70
1504458300.3,63300,18.94,73160.0,0.41,0.09,0.09,0,*4E
1504458301.46,63301,18.94,73164.5,0.43,0.05,0.09,0,*41
1504458302.61,63302,18.94,73162.5,0.43,0.05,0.05,0,*4E
1504458303.77,63303,18.94,73162.0,0.43,0.05,-0.03,0,*64
1504458304.92,63304,18.94,73164.0,0.43,0.05,0.05,0,*48
1504458306.1,63305,18.94,73162.8,0.45,0.09,0.13,0,*74
1504458307.26,63306,18.94,73164.8,0.43,-0.03,0.05,0,*61
1504458308.41,63307,18.94,73162.8,0.43,0.09,0.09,0,*4B
1504458309.57,63308,18.94,73166.8,0.43,0.05,0.05,0,*44
1504458310.72,63309,18.94,73166.8,0.43,0.05,0.05,0,*45
1504458311.88,63310,18.94,73164.8,0.43,0.05,0.05,0,*4D
1504458313.04,63311,18.94,73162.3,0.43,-0.07,-0.03,0,*48
1504458314.19,63312,18.94,73166.8,0.43,-0.03,0.05,0,*64
1504458315.35,63313,18.94,73166.8,0.43,0.05,-0.03,0,*65
1504458316.51,63314,18.94,73166.8,0.43,0.05,-0.03,0,*62
1504458317.67,63315,18.94,73164.5,0.43,-0.07,-0.03,0,*4C
1504458318.82,63316,18.94,73166.3,0.45,0.01,-0.03,0,*62
1504458319.97,63317,18.94,73166.0,0.45,0.01,0.01,0,*4C
1504458321.12,63318,18.94,73164.3,0.45,0.01,0.01,0,*43
1504458322.27,63319,18.94,73168.0,0.45,0.01,-0.03,0,*6D
1504458323.43,63320,18.94,73168.0,0.45,0.01,-0.03,0,*67
1504458324.59,63321,18.94,73168.8,0.43,-0.07,-0.07,0,*4F
1504458325.75,63322,18.94,73166.8,0.43,-0.03,-0.03,0,*4C
1504458326.91,63323,18.94,73168.5,0.43,-0.07,-0.03,0,*49
1504458328.06,63324,18.94,73168.8,0.45,0.01,0.01,0,*4C
1504458329.2,63325,18.88,73164.3,0.45,0.01,0.01,0,*4D
1504458330.36,63326,18.94,73166.8,0.45,0.01,0.09,0,*46
1504458331.52,63327,18.94,73166.0,0.45,-0.03,0.01,0,*60
1504458332.69,63328,18.88,73164.3,0.45,-0.11,-0.03,0,*73
1504458333.86,63329,18.94,73164.3,0.45,-0.11,-0.03,0,*72
1504458335.02,63330,18.94,73166.5,0.45,-0.03,0.01,0,*66
1504458336.17,63331,18.94,73166.5,0.45,0.01,0.09,0,*40
1504458337.35,63332,18.94,73168.3,0.47,0.01,0.09,0,*41
1504458338.53,63333,18.88,73170.0,0.47,-0.03,0.01,0,*67
1504458339.69,63334,18.94,73174.0,0.45,0.01,-0.03,0,*62
1504458340.84,63335,18.94,73174.0,0.45,0.01,-0.03,0,*63
1504458341.99,63336,18.94,73174.3,0.45,0.01,0.01,0,*4F
1504458343.16,63337,18.94,73172.8,0.45,-0.03,-0.03,0,*4E
1504458344.31,63338,18.94,73170.5,0.45,0.01,0.01,0,*41
1504458345.48,63339,18.94,73166.8,0.47,0.01,0.01,0,*42
1504458346.65,63340,18.94,73164.0,0.47,0.01,0.09,0,*44
1504458347.83,63341,18.94,73164.5,0.47,0.01,0.09,0,*45
1504458349.01,63342,18.94,73164.8,0.47,0.09,0.09,0,*4E
1504458350.22,63343,18.94,73164.5,0.47,0.09,0.13,0,*74
1504458351.4,63344,18.94,73168.5,0.47,0.09,0.09,0,*48
1504458352.58,63345,18.94,73166.8,0.47,0.09,0.09,0,*49
1504458353.75,63346,18.94,73170.5,0.47,0.01,0.01,0,*4A
1504458354.93,63347,18.94,73168.5,0.47,0.01,-0.03,0,*64
1504458356.11,63348,18.94,73170.3,0.47,0.01,0.01,0,*44
1504458357.29,63349,18.94,73168.5,0.47,-0.03,0.01,0,*6A
1504458358.47,63350,18.94,73170.8,0.47,0.01,-0.03,0,*62
1504458359.64,63351,18.94,73168.5,0.47,0.01,0.01,0,*4C
1504458360.83,63352,18.94,73168.0,0.47,-0.03,0.09,0,*68
1504458362.01,63353,18.94,73168.3,0.47,0.09,0.09,0,*4E
1504458363.18,63354,18.94,73172.0,0.47,0.01,0.01,0,*49
1504458364.36,63355,18.94,73168.8,0.47,0.01,0.09,0,*40
1504458365.53,63356,18.94,73170.8,0.47,0.01,0.09,0,*43
1504458366.71,63357,18.88,73170.0,0.47,0.01,-0.03,0,*65
1504458367.9,63358,18.94,73170.5,0.47,-0.03,-0.03,0,*45
1504458369.08,63359,18.94,73170.5,0.51,0.05,0.05,0,*43
1504458370.29,63360,18.94,73168.8,0.51,0.05,0.13,0,*7E
1504458371.47,63361,18.94,73170.8,0.51,0.05,0.01,0,*4C
1504458372.66,63362,18.94,73168.3,0.47,-0.03,-0.03,0,*4C
1504458373.84,63363,18.94,73164.3,0.47,0.01,-0.03,0,*62
1504458375.02,63364,18.94,73166.0,0.47,-0.03,0.01,0,*65
1504458376.2,63365,18.94,73164.3,0.47,0.01,-0.03,0,*64
1504458377.38,63366,18.88,73162.8,0.51,0.05,0.01,0,*4B
1504458378.55,63367,18.88,73162.5,0.51,0.01,0.01,0,*4E
1504458379.72,63368,18.94,73164.0,0.51,0.01,0.05,0,*45
1504458380.9,63369,18.88,73164.5,0.51,0.01,0.01,0,*40
1504458382.04,63370,18.94,73166.8,0.53,0.01,0.01,0,*4A
1504458383.22,63371,18.94,73164.5,0.51,-0.07,0.01,0,*62
1504458384.4,63372,18.94,73164.3,0.51,-0.07,0.01,0,*61
1504458385.55,63373,18.88,73162.8,0.53,-0.07,0.01,0,*62
1504458386.75,63374,18.94,73166.3,0.51,-0.11,-0.07,0,*7B
1504458387.95,63375,18.94,73164.3,0.51,-0.11,-0.07,0,*7A
1504458389.12,63376,18.94,73164.3,0.51,0.01,0.01,0,*4E
1504458390.29,63377,18.94,73166.5,0.51,0.01,0.01,0,*4F
1504458391.47,63378,18.94,73164.5,0.51,0.05,0.01,0,*44
1504458392.62,63379,18.94,73168.0,0.53,-0.07,0.01,0,*68
1504458393.76,63380,18.88,73162.8,0.53,0.01,0.01,0,*45
1504458394.94,63381,18.88,73162.5,0.51,-0.07,0.05,0,*69
1504458396.13,63382,18.94,73168.0,0.51,-0.07,0.01,0,*6E
1504458397.33,63383,18.88,73164.3,0.51,-0.11,-0.11,0,*44
1504458398.54,63384,18.94,73164.5,0.51,-0.11,-0.11,0,*43
1504458399.73,63385,18.94,73164.5,0.51,-0.11,-0.07,0,*75
1504458400.94,63386,18.94,73164.8,0.51,-0.11,-0.19,0,*49
1504458402.14,63387,18.94,73166.0,0.51,-0.11,-0.19,0,*48
1504458403.34,63388,18.94,73166.3,0.51,-0.07,-0.11,0,*78
1504458404.53,63389,18.94,73166.0,0.51,-0.07,-0.11,0,*79
1504458405.74,63390,18.88,73164.5,0.51,-0.11,-0.11,0,*46
1504458406.94,63391,18.94,73166.3,0.51,-0.11,-0.11,0,*47
1504458408.15,63392,18.94,73166.3,0.51,-0.19,-0.19,0,*44
1504458409.33,63393,18.94,73168.5,0.51,-0.07,-0.07,0,*45
1504458410.53,63394,18.94,73168.5,0.51,-0.11,-0.07,0,*75
1504458411.7,63395,18.94,73164.5,0.53,-0.11,-0.07,0,*76
1504458412.89,63396,18.88,73164.5,0.51,-0.07,-0.11,0,*77
1504458414.09,63397,18.94,73164.3,0.51,-0.07,-0.11,0,*76
1504458415.34,63398,18.88,73160.3,0.51,-0.27,-0.27,0,*4E
1504458416.53,63399,18.94,73162.8,0.51,-0.49,-0.45,0,*43
1504458417.73,63400,18.94,73160.0,0.51,-0.37,-0.37,0,*48
1504458418.94,63401,18.94,73160.3,0.47,-0.37,-0.41,0,*4F
1504458420.13,63402,18.94,73164.0,0.47,-0.37,-0.29,0,*42
1504458421.32,63403,18.94,73166.0,0.47,-0.29,-0.29,0,*4C
1504458422.54,63404,18.94,73162.0,0.47,-0.23,-0.29,0,*41
1504458423.79,63405,18.88,73156.5,0.47,-0.27,-0.27,0,*4A
1504458424.96,63406,18.94,73160.0,0.45,-0.37,-0.37,0,*4B
1504458426.13,63407,18.88,73162.5,0.45,-0.29,-0.29,0,*4A
1504458427.3,63408,18.88,73160.8,0.45,-0.29,-0.29,0,*45
1504458428.52,63409,18.94,73158.8,0.45,-0.27,-0.27,0,*44
1504458429.74,63410,18.94,73158.5,0.45,-0.27,-0.27,0,*4C
1504458430.96,63411,18.94,73160.5,0.47,-0.27,-0.29,0,*41
1504458432.15,63412,18.88,73158.3,0.45,-0.27,-0.29,0,*40
1504458433.35,63413,18.94,73158.5,0.45,-0.27,-0.29,0,*41
1504458434.52,63414,18.88,73160.0,0.45,-0.37,-0.29,0,*47
1504458435.7,63415,18.94,73162.0,0.45,-0.49,-0.41,0,*41
1504458436.88,63416,18.88,73162.0,0.43,-0.41,-0.41,0,*4C
1504458438.05,63417,18.88,73160.8,0.43,-0.33,-0.41,0,*48
1504458439.23,63418,18.88,73162.5,0.43,-0.41,-0.41,0,*42
1504458440.4,63419,18.94,73160.5,0.43,-0.33,-0.33,0,*43
1504458441.57,63420,18.94,73160.0,0.43,-0.33,-0.33,0,*49
1504458442.74,63421,18.88,73156.3,0.43,-0.41,-0.33,0,*4D
1504458443.92,63422,18.94,73156.5,0.45,-0.37,-0.41,0,*4C
1504458445.09,63423,18.88,73152.3,0.43,-0.53,-0.53,0,*4A
1504458446.28,63424,18.88,73152.0,0.41,-0.65,-0.65,0,*4F
1504458447.47,63425,18.88,73154.0,0.41,-0.57,-0.57,0,*4E
1504458448.65,63426,18.94,73152.8,0.43,-0.45,-0.41,0,*4B
1504458449.85,63427,18.88,73154.8,0.41,-0.41,-0.33,0,*49
1504458451.04,63428,18.94,73158.0,0.41,-0.33,-0.33,0,*43
1504458452.21,63429,18.88,73152.8,0.43,-0.33,-0.33,0,*40
1504458453.4,63430,18.94,73158.8,0.41,-0.41,-0.45,0,*4E
1504458454.57,63431,18.94,73156.3,0.43,-0.53,-0.53,0,*49
1504458455.76,63432,18.88,73152.8,0.41,-0.69,-0.65,0,*44
1504458456.95,63433,18.88,73152.5,0.41,-0.65,-0.65,0,*49
1504458458.14,63434,18.88,73156.5,0.37,-0.65,-0.61,0,*4B
1504458459.31,63435,18.94,73156.8,0.39,-0.61,-0.61,0,*40
1504458460.48,63436,18.94,73158.3,0.39,-0.69,-0.73,0,*48
1504458461.65,63437,18.94,73158.0,0.39,-0.69,-0.61,0,*4A
1504458462.81,63438,18.88,73154.3,0.39,-0.61,-0.61,0,*4D
1504458464.02,63439,18.94,73156.3,0.37,-0.73,-0.73,0,*42
1504458465.19,63440,18.94,73156.5,0.39,-0.57,-0.57,0,*42
1504458466.38,63441,18.88,73152.5,0.37,-0.53,-0.53,0,*4D
1504458467.59,63442,18.88,73156.8,0.37,-0.53,-0.49,0,*45
1504458468.76,63443,18.88,73154.5,0.39,-0.37,-0.45,0,*44
1504458469.96,63444,18.88,73154.5,0.37,-0.41,-0.41,0,*48
1504458471.14,63445,18.94,73158.0,0.39,-0.37,-0.41,0,*46
1504458472.34,63446,18.94,73152.8,0.37,-0.37,-0.33,0,*4E
1504458473.51,63447,18.94,73156.3,0.39,-0.33,-0.33,0,*45
1504458474.72,63448,18.88,73154.5,0.37,-0.37,-0.37,0,*44
1504458475.89,63449,18.88,73152.0,0.39,-0.33,-0.33,0,*4B
1504458477.05,63450,18.88,73154.8,0.39,-0.33,-0.29,0,*48
1504458478.25,63451,18.88,73150.3,0.37,-0.37,-0.37,0,*4C
1504458479.42,63452,18.94,73154.5,0.39,-0.29,-0.29,0,*41
1504458480.63,63453,18.88,73152.8,0.37,-0.33,-0.27,0,*4B
1504458481.85,63454,18.94,73154.0,0.37,-0.33,-0.27,0,*4C
1504458483.02,63455,18.88,73152.8,0.39,-0.33,-0.33,0,*46
1504458484.22,63456,18.88,73152.0,0.37,-0.33,-0.37,0,*4F
1504458485.41,63457,18.94,73148.0,0.39,-0.23,-0.29,0,*4E
1504458486.58,63458,18.88,73144.8,0.39,-0.29,-0.29,0,*4B
1504458487.74,63459,18.88,73148.3,0.39,-0.29,-0.29,0,*4A
1504458488.91,63460,18.94,73148.5,0.39,-0.29,-0.19,0,*43
1504458490.11,63461,18.88,73146.5,0.37,-0.33,-0.33,0,*4F
1504458491.31,63462,18.88,73150.0,0.39,-0.23,-0.19,0,*4B
1504458492.55,63463,18.94,73154.3,0.37,-0.23,-0.27,0,*49
1504458493.75,63464,18.88,73154.0,0.39,-0.27,-0.19,0,*49
1504458494.99,63465,18.94,73152.5,0.37,-0.23,-0.23,0,*4B
1504458496.23,63466,18.94,73148.5,0.37,-0.23,-0.23,0,*48
1504458497.44,63467,18.94,73152.5,0.39,-0.23,-0.11,0,*46
1504458498.68,63468,18.88,73150.5,0.37,-0.27,-0.27,0,*46
1504458499.84,63469,18.88,73150.3,0.39,-0.33,-0.29,0,*42
1504458501.02,63470,18.94,73148.5,0.39,-0.33,-0.33,0,*41
1504458502.19,63471,18.88,73146.8,0.39,-0.33,-0.33,0,*40
1504458503.39,63472,18.88,73144.8,0.39,-0.23,-0.19,0,*4A